Location: Danville Conservation Area
(38.8674°N, 91.5143°W)
Time: 01:20:24
(UTC-06:00)

Envisat - Pass Details

Date: 05 December 2021
Orbit: 764 x 766 km, 98.2° (Epoch: 23 January)

Event Time Altitude Azimuth Distance (km) Brightness Sun altitude
Rises 05:36:33 0° 6° (N) 3,240 6.2 -17.6°
Reaches altitude 10° 05:38:56 10° 0° (N) 2,309 5.3 -17.2°
Maximum altitude 05:43:47 46° 288° (WNW) 1,017 3.2 -16.3°
Drops below altitude 10° 05:48:36 10° 216° (SW) 2,294 5.3 -15.4°
Sets 05:50:58 0° 210° (SSW) 3,215 6.1 -14.9°
